TimeSAST,TemperatureF,Dew PointF,Humidity,Sea Level PressureIn,VisibilityMPH,Wind Direction,Wind SpeedMPH,Gust SpeedMPH,PrecipitationIn,Events,Conditions,WindDirDegrees,DateUTC
12:00 AM,50.0,46.4,87,30.12,6.2,WNW,4.6,-,N/A,,Mostly Cloudy,290,2012-10-19 22:00:00
1:00 AM,50.0,46.4,87,30.12,6.2,WNW,4.6,-,N/A,,Mostly Cloudy,300,2012-10-19 23:00:00
2:00 AM,50,46,81,30.14,12,NW,6.9,,,,,320,2012-10-20 00:00:00
2:00 AM,50.0,46.4,87,30.12,6.2,NW,8.1,-,N/A,,Partly Cloudy,320,2012-10-20 00:00:00
3:00 AM,51.8,46.4,82,30.12,-9999.0,WNW,4.6,-,N/A,,Clear,300,2012-10-20 01:00:00
4:00 AM,51.8,48.2,88,30.15,6.2,NW,5.8,-,N/A,,Mostly Cloudy,310,2012-10-20 02:00:00
5:00 AM,52,48,83,30.17,12,West,4.6,,,,Mostly Cloudy,280,2012-10-20 03:00:00
5:00 AM,51.8,48.2,88,30.15,6.2,West,4.6,-,N/A,,Mostly Cloudy,280,2012-10-20 03:00:00
6:00 AM,51.8,48.2,88,30.18,6.2,West,6.9,-,N/A,Rain,Light Rain,260,2012-10-20 04:00:00
7:00 AM,51.8,48.2,88,30.18,6.2,West,10.4,-,N/A,,Mostly Cloudy,280,2012-10-20 05:00:00
8:00 AM,53,49,83,30.21,12,WNW,8.1,,,,Partly Cloudy,290,2012-10-20 06:00:00
8:00 AM,53.6,50.0,88,30.18,6.2,WNW,8.1,-,N/A,,Mostly Cloudy,290,2012-10-20 06:00:00
9:00 AM,53.6,50.0,88,30.21,6.2,West,9.2,-,N/A,Rain,Light Rain,280,2012-10-20 07:00:00
10:00 AM,53.6,50.0,88,30.21,5.6,WNW,10.4,-,N/A,Rain,Light Rain,290,2012-10-20 08:00:00
11:00 AM,55.4,50.0,82,30.18,6.2,WNW,12.7,-,N/A,Rain,Light Rain,290,2012-10-20 09:00:00
12:00 PM,55.4,51.8,88,30.18,3.7,West,10.4,-,N/A,Rain,Light Rain,280,2012-10-20 10:00:00
1:00 PM,55.4,51.8,88,30.18,5.6,WNW,11.5,-,N/A,Rain,Light Rain,290,2012-10-20 11:00:00
2:00 PM,56,53,86,30.17,19,NW,11.5,,,Rain,Light Rain,310,2012-10-20 12:00:00
2:00 PM,57.2,53.6,88,30.15,6.2,WNW,11.5,-,N/A,Rain,Light Rain,300,2012-10-20 12:00:00
3:00 PM,59.0,53.6,82,30.15,6.2,South,3.5,-,N/A,,Mostly Cloudy,180,2012-10-20 13:00:00
4:00 PM,59.0,53.6,82,30.15,6.2,ESE,5.8,-,N/A,Rain,Light Rain,110,2012-10-20 14:00:00
5:00 PM,57,54,85,30.16,6,East,6.9,,,Rain,Light Rain,80,2012-10-20 15:00:00
5:00 PM,57.2,53.6,88,30.15,6.2,East,6.9,-,N/A,Rain,Light Rain,80,2012-10-20 15:00:00
6:00 PM,57.2,53.6,88,30.15,6.2,East,6.9,-,N/A,Rain,Light Rain,90,2012-10-20 16:00:00
7:00 PM,55.4,51.8,88,30.15,6.2,ESE,8.1,-,N/A,,Mostly Cloudy,110,2012-10-20 17:00:00
8:00 PM,56,53,86,30.18,4,East,6.9,,,Rain,Drizzle,100,2012-10-20 18:00:00
8:00 PM,55.4,53.6,94,30.15,5.0,East,6.9,-,N/A,,Drizzle,100,2012-10-20 18:00:00
9:00 PM,55.4,53.6,94,30.18,-9999.0,SE,16.1,27.6,N/A,Rain,Rain,130,2012-10-20 19:00:00
10:00 PM,55.4,53.6,94,30.18,-9999.0,East,10.4,-,N/A,Rain,Rain,90,2012-10-20 20:00:00
11:00 PM,53.6,51.8,94,30.15,-9999.0,East,5.8,-,N/A,Rain,Rain,90,2012-10-20 21:00:00